[[{"header":{"parameterUnit":"m.s-1","parameterCategory":1,"la1":30.2991,"la2":30.254,"lo1":-89.0895,"lo2":-89.0444,"dy":0.0017,"dx":0.0017,"nx":28,"ny":28,"refTime":"2025-07-11T09:00:00:Z","depth":0,"parameterNumber":2,"parameterNumberName":"U-component_of_WINDS"},"data":[0,0,0,0,0,0,0,0,0,0,0,0,0,0,0,0,0,0,0,0,0,0,0,0,0,0,0,0,0,0,0,0,0,0,0,0,0,0,0,0,0,0,0,0,0,0,0,0,0,0,0,0,0,0,0,0,0,0,0.9618,0.962,0,0.9818,0.9821,0.9823,0.992,0.992,0.992,0.992,1.0125,1.013,1.0136,0,0,0,0,0,0,0,0,0,0,0,0,0,0.9316,0.9321,0.9617,0.962,0.9622,0.9818,0.9821,0.9823,0.992,0.992,0.992,0.992,1.0123,1.013,1.0136,0,0,0,0,0,0,0,0,0,0,0,0,0,0.9475,0.9323,0.9617,0.9694,0.9703,0.9817,0.9821,0.9824,0.992,0.992,0.992,0.992,1.0121,1.0129,1.0137,1.0189,0,0,1.0162,1.0166,0,0,0,0,0,0,0,0,0.9465,0.9486,0.968,0.9689,0.9699,0.9844,0.979,0.9947,0.992,0.9838,0.992,0.992,1.0031,1.0047,1.0085,1.0199,1.0208,1.0163,1.0168,1.0172,1.0174,0,0,0,0,0,0,0,0.9454,0.9478,0.9697,0.9683,0.9695,0.9718,0.9741,0.982,0.9932,0.9845,0.9853,0.9875,1.0037,1.0077,1.009,1.0211,1.0163,1.017,1.0175,1.0178,1.0377,1.0377,0,0,0,0,0,0,0.9431,0.9468,0.9691,0.9703,0.958,0.9724,0.9749,0.9798,0.9932,0.9952,0.9875,0.9879,1.0063,1.0081,1.0098,1.0168,1.0171,1.0179,1.0184,1.0376,1.0377,1.0377,0,0,0,0,0,0,0.9424,0.945,0.9682,0.9588,0.9619,0.9729,0.9783,0.9802,0.9842,0.9955,0.9975,0.9895,1.0063,1.0086,1.0166,1.0176,1.0183,1.019,1.0376,1.0376,1.0377,1.0308,0,0,0,0,0,0,0.9415,0.9447,0.9469,0.9587,0.9624,0.9747,0.9784,0.9806,0.9856,0.9863,0.9979,0.9998,1.0065,1.0153,1.0174,1.0188,1.0197,1.0376,1.0376,1.0377,1.0309,1.0306,1.0302,0,0,0,0,0,0.9404,0.9441,0.9469,0.9495,0.9653,0.9748,0.9768,0.9845,0.9856,0.9879,0.9951,0.9994,1.0171,1.016,1.0185,1.0201,1.0375,1.0376,1.0377,1.0311,1.0306,1.0302,0,0,0,0,0,0,0.9321,0.9458,0.9491,0.9567,0.9645,0.9764,0.9794,0.9837,0.9913,0.9917,1.0008,1.0033,1.0104,1.0161,1.0146,1.0258,1.0277,1.0283,1.0219,1.0216,1.0212,1.0197,1.0204,0,0,0,0,0,0.9311,0.9377,0.9493,0.955,0.9587,0.9683,0.9728,0.978,0.9864,0.9897,0.9975,1.0055,1.0128,1.0175,1.0249,1.0317,1.0344,1.0341,1.0337,1.0334,1.0338,1.0378,1.0378,1.0379,1.0379,1.0379,0,0,0.9292,0.9375,0.9412,0.9535,0.9601,0.9667,0.9711,0.9779,0.9828,0.9907,0.9987,1.0047,1.0142,1.0215,1.0252,1.0265,1.0343,1.0335,1.0331,1.0337,1.0378,1.0378,1.0378,1.038,1.038,1.038,0,0,0.9292,0.9361,0.9416,0.9481,0.9581,0.9645,0.9657,0.977,0.9812,0.9894,0.9954,1.0014,1.0139,1.0204,1.0253,1.0275,1.0318,1.0296,1.0278,1.0316,1.0316,1.0316,1.0324,1.0325,1.03,1.0299,1.0299,0,0.9256,0.9358,0.9438,0.9503,0.9555,0.9629,0.9684,0.9744,0.9862,0.9896,0.9908,1.0066,1.0135,1.0225,1.023,1.0267,1.0284,1.0284,1.0309,1.031,1.0312,1.032,1.0323,1.0296,1.0297,1.0297,1.0297,0,0.9308,0.9378,0.941,0.9522,0.9578,0.9637,0.9726,0.9772,0.9818,0.988,0.9962,1.0047,1.0139,1.0164,1.021,1.026,1.0265,1.0292,1.0313,1.0307,1.0317,1.032,1.0292,1.0293,1.0294,1.0294,0,0,0.9263,0.9418,0.9428,0.948,0.9594,0.965,0.9711,0.9802,0.9839,0.9918,0.9972,1.0075,1.0101,1.0156,1.021,1.0243,1.0254,1.0267,1.027,1.0261,1.0315,1.0294,1.0296,1.0283,1.0284,1.0285,1.0307,0,0.9278,0.9394,0.9467,0.9553,0.9618,0.9688,0.9742,0.9818,0.9877,0.994,1.0005,1.0077,1.0105,1.0139,1.0175,1.0245,1.0266,1.0245,1.0334,1.0336,1.0309,1.0301,1.028,1.0297,1.0311,1.0311,1.0312,0,0.9313,0.9389,0.9481,0.9588,0.9618,0.9665,0.9753,0.9813,0.9899,0.994,1.0001,1.0055,1.0123,1.0137,1.0232,1.0215,1.0256,1.0296,1.0298,1.031,1.0324,1.0313,1.0304,1.0306,1.0319,1.0318,1.0318,0,0.927,0.9396,0.9468,0.951,0.9636,0.9667,0.9721,0.9808,0.9857,0.9933,0.9966,1.0049,1.0094,1.0157,1.0232,1.0235,1.0318,1.0339,1.0354,1.0351,1.0369,1.0367,1.0366,1.0393,1.0393,1.0393,1.0393,0,0.928,0.9334,0.945,0.9494,0.9556,0.9639,0.9697,0.9757,0.9833,0.9889,0.9955,1.0006,1.0102,1.0164,1.0223,1.0292,1.0312,1.0346,1.0361,1.0341,1.0336,1.0369,1.037,1.0394,1.0394,1.0394,1.0394,0,0.9244,0.9324,0.9407,0.9519,0.9548,0.9588,0.9684,0.9729,0.9791,0.9861,0.9882,0.9979,1.0056,1.0137,1.0241,1.0281,1.0347,1.0368,1.0318,1.0327,1.0337,1.0335,1.0358,1.0365,1.0386,1.0386,1.0386,0,0.9246,0.9289,0.9405,0.9448,0.95,0.9567,0.9618,0.97,0.9749,0.985,0.9883,0.9965,1.0035,1.0154,1.0234,1.0314,1.0337,1.034,1.035,1.0328,1.0338,1.0334,1.0339,1.0336,1.0336,1.0335,1.0335,0,0.924,0.9278,0.9348,0.9431,0.9489,0.9559,0.9631,0.9662,0.9758,0.981,0.989,0.9944,1.005,1.013,1.0219,1.0275,1.0321,1.0331,1.0339,1.0318,1.0288,1.0305,1.0309,1.033,1.0331,1.0331,1.0331,1.0332,0.9224,0.9265,0.9353,0.9429,0.9491,0.9557,0.9604,0.9672,0.9739,0.9833,0.9877,0.9956,1.004,1.0165,1.0219,1.0282,1.0295,1.0306,1.0309,1.0311,1.0305,1.0277,1.0298,1.0298,1.0298,1.0299,1.0299,0,0.9222,0.9282,0.9351,0.9449,0.9508,0.9546,0.9627,0.9674,0.9743,0.9818,0.9885,0.9976,1.0053,1.0138,1.0221,1.0255,1.0278,1.0274,1.0273,1.0284,1.0289,1.0274,1.0254,1.0254,1.0254,1.0254,1.0254,1.0254,0.9228,0.93,0.9347,0.9449,0.9509,0.9587,0.963,0.9691,0.9751,0.9849,0.9914,0.9969,1.0048,1.0136,1.0209,1.0232,1.0259,1.0249,1.0278,1.0281,1.0284,1.0288,1.0274,1.0254,1.0254,1.0269,1.0269,1.0269]},{"header":{"parameterUnit":"m.s-1","parameterCategory":1,"la1":30.2991,"la2":30.254,"lo1":-89.0895,"lo2":-89.0444,"dy":0.0017,"dx":0.0017,"nx":28,"ny":28,"refTime":"2025-07-11T09:00:00:Z","depth":0,"parameterNumber":3,"parameterNumberName":"V-component_of_WINDS"},"data":[0,0,0,0,0,0,0,0,0,0,0,0,0,0,0,0,0,0,0,0,0,0,0,0,0,0,0,0,0,0,0,0,0,0,0,0,0,0,0,0,0,0,0,0,0,0,0,0,0,0,0,0,0,0,0,0,0,0,4.9929,4.9928,0,4.9853,4.9852,4.9851,4.9749,4.9747,4.9745,4.9744,4.9664,4.9663,4.9663,0,0,0,0,0,0,0,0,0,0,0,0,0,4.9984,4.9983,4.9929,4.9928,4.9927,4.9853,4.9852,4.9851,4.9749,4.9747,4.9745,4.9743,4.9664,4.9663,4.9663,0,0,0,0,0,0,0,0,0,0,0,0,0,4.9939,4.9983,4.9929,4.9867,4.9861,4.9853,4.9852,4.985,4.975,4.9747,4.9744,4.9742,4.9664,4.9663,4.9663,4.9708,0,0,4.966,4.966,0,0,0,0,0,0,0,0,4.9942,4.9937,4.9877,4.9871,4.9864,4.9808,4.9842,4.9803,4.975,4.9792,4.9744,4.9741,4.9714,4.9709,4.97,4.9705,4.9701,4.966,4.966,4.9659,4.9659,0,0,0,0,0,0,0,4.9945,4.994,4.9898,4.9876,4.9869,4.9843,4.9833,4.9834,4.9768,4.9788,4.978,4.9773,4.971,4.9701,4.9697,4.97,4.966,4.9659,4.9659,4.9658,4.9737,4.9739,0,0,0,0,0,0,4.9957,4.9943,4.9901,4.9896,4.9898,4.9844,4.9833,4.9828,4.9767,4.9756,4.9775,4.9768,4.9704,4.9698,4.9694,4.9742,4.9659,4.9658,4.9658,4.9734,4.9737,4.974,0,0,0,0,0,0,4.9959,4.9955,4.9904,4.9917,4.9909,4.9845,4.9841,4.9828,4.9819,4.9758,4.9745,4.9778,4.9701,4.9695,4.9705,4.9738,4.9658,4.9657,4.9731,4.9735,4.9739,4.984,0,0,0,0,0,0,4.9961,4.9956,4.9973,4.9919,4.9909,4.9918,4.9843,4.9829,4.9818,4.9809,4.9758,4.9747,4.9699,4.9707,4.9705,4.9735,4.9657,4.9728,4.9733,4.9738,4.9834,4.9847,4.9859,0,0,0,0,0,4.9963,5.0004,4.9974,4.997,4.9929,4.992,4.9914,4.9859,4.9822,4.9838,4.9798,4.9748,4.9735,4.9709,4.9705,4.9737,4.9726,4.9732,4.9737,4.9828,4.9845,4.9858,0,0,0,0,0,0,5.0064,4.9996,4.9962,4.9987,4.996,4.9903,4.9921,4.9878,4.986,4.9852,4.9784,4.9773,4.9791,4.9765,4.9737,4.9777,4.9723,4.9728,4.9793,4.9808,4.9821,4.9826,4.9656,0,0,0,0,0,5.0089,5.0088,5.0028,5.0056,5.0044,4.9986,4.998,4.9939,4.9908,4.9896,4.9857,4.9828,4.9817,4.9811,4.9798,4.983,4.9816,4.9849,4.9862,4.9872,4.9877,4.9891,4.9904,4.9759,4.9759,4.9759,0,0,5.0141,5.0104,5.0107,5.0075,5.005,5.0049,4.9977,4.9979,4.9978,4.9896,4.9903,4.9874,4.9837,4.9858,4.9865,4.9836,4.9914,4.988,4.9889,4.9888,4.9898,4.9912,4.9924,4.9763,4.9762,4.9762,0,0,5.0234,5.0207,5.0226,5.0202,5.0164,5.0125,5.013,5.0079,5.0056,5.0063,5.0001,4.9998,4.9981,4.9957,4.9943,5.0027,4.998,5.0025,5.009,5.0104,5.0115,5.0125,5.0154,5.0165,5.003,5.0031,5.0031,0,5.0303,5.03,5.0242,5.0248,5.0235,5.0162,5.0181,5.016,5.012,5.0113,5.0081,5.0058,5.0028,5.0042,5.0063,5.0054,5.0056,5.003,5.0118,5.0127,5.0136,5.0162,5.0174,5.0036,5.0036,5.0035,5.0035,0,5.0386,5.0385,5.0405,5.0369,5.0359,5.0372,5.0314,5.0311,5.0272,5.0235,5.0242,5.0204,5.0181,5.0181,5.0143,5.0189,5.0172,5.0131,5.0075,5.0156,5.018,5.019,5.0044,5.0042,5.0041,5.0039,0,0,5.054,5.0471,5.0479,5.0462,5.0415,5.0412,5.0421,5.04,5.0398,5.0373,5.0377,5.0365,5.0326,5.031,5.0268,5.028,5.0348,5.0236,5.0234,5.0258,5.0395,5.0426,5.0439,5.0317,5.0319,5.032,5.0398,0,5.0623,5.0635,5.0583,5.0608,5.0606,5.0537,5.0544,5.0516,5.0483,5.0475,5.0437,5.0429,5.0379,5.0369,5.0378,5.0338,5.0375,5.0332,5.0319,5.032,5.033,5.0452,5.0484,5.0559,5.0407,5.0408,5.041,0,5.0722,5.0703,5.0729,5.068,5.0677,5.0685,5.066,5.0655,5.0621,5.0595,5.0578,5.0529,5.0533,5.0481,5.0485,5.0457,5.0449,5.0429,5.043,5.0426,5.0369,5.0449,5.0582,5.0593,5.0424,5.0423,5.0422,0,5.0831,5.0811,5.0823,5.0811,5.0754,5.0761,5.0738,5.0702,5.0692,5.067,5.0663,5.0642,5.0631,5.0615,5.0562,5.0529,5.0572,5.0515,5.0549,5.0551,5.056,5.056,5.0693,5.0558,5.0558,5.0557,5.0557,0,5.0929,5.0947,5.0871,5.0879,5.0897,5.0836,5.0855,5.0825,5.0793,5.0792,5.0731,5.0732,5.0663,5.0655,5.0614,5.0623,5.0618,5.0597,5.0585,5.0601,5.0604,5.0594,5.0587,5.056,5.056,5.0559,5.0559,0,5.1052,5.1003,5.1011,5.0958,5.0945,5.096,5.0913,5.0917,5.088,5.0881,5.0877,5.0819,5.0807,5.0753,5.0728,5.07,5.0722,5.07,5.0734,5.0726,5.0763,5.076,5.0892,5.0906,5.0764,5.0766,5.0767,0,5.1117,5.113,5.1078,5.1074,5.1053,5.1047,5.1037,5.0978,5.097,5.0932,5.094,5.0924,5.0907,5.0891,5.0845,5.0826,5.0802,5.085,5.0799,5.0814,5.0801,5.0801,5.0801,5.0861,5.0863,5.0864,5.0865,0,5.1238,5.1213,5.1201,5.1181,5.1171,5.1152,5.1129,5.1129,5.1063,5.1057,5.1044,5.1032,5.1006,5.099,5.0963,5.0937,5.089,5.0882,5.0889,5.0905,5.0923,5.0912,5.0763,5.0879,5.0878,5.0877,5.0876,5.0875,5.1333,5.1341,5.1305,5.1294,5.1271,5.1251,5.1252,5.1216,5.1205,5.118,5.1146,5.1138,5.1102,5.1061,5.1039,5.1031,5.1004,5.1014,5.1016,5.1019,5.1027,5.0926,5.1026,5.1025,5.1025,5.1024,5.1024,0,5.145,5.1424,5.1414,5.1385,5.1376,5.1334,5.1306,5.1301,5.1295,5.1267,5.1252,5.1237,5.1221,5.1174,5.1153,5.1155,5.1133,5.1152,5.115,5.1145,5.1053,5.1049,5.117,5.117,5.117,5.117,5.117,5.117,5.151,5.152,5.1491,5.1488,5.1461,5.1454,5.1442,5.1423,5.1399,5.1386,5.1373,5.1343,5.1307,5.1282,5.1265,5.1252,5.1246,5.1272,5.1251,5.1166,5.1151,5.1138,5.1134,5.1271,5.1271,5.1343,5.1344,5.1345]}]]